Regional Weather Roundup
Issued by NWS

Home | Current Version | Previous Version | Text Only | Print | Product List | Glossary Off
Versions: 1 2 3 4 5 6 7 8 9 10 11 12 13 14 15 16 17 18 19 20 21 22 23 24 25 26 27 28 29 30 31 32 33 34 35 36 37 38 39 40 41 42 43 44 45 46 47 48 49 50

935
ASUS43 KLMK 250310
RWRKY
KENTUCKY REGIONAL WEATHER ROUNDUP
NATIONAL WEATHER SERVICE LOUISVILLE KY
1100 PM EDT SUN JUL 24 2016

NOTE "FAIR" INDICATES FEW OR NO CLOUDS BELOW 12,000 FEET
WITH NO SIGNIFICANT WEATHER AND/OR OBSTRUCTIONS TO VISIBILITY.

KYZ001>023-026-027-061>063-070>075-250400-
WESTERN AND SOUTH CENTRAL KENTUCKY

CITY           SKY/WX    TMP DP  RH WIND       PRES   REMARKS
PADUCAH        PTCLDY    82  76  81 CALM      29.96R
HENDERSON      PTCLDY    81  75  83 S5        29.95S
OWENSBORO      PTCLDY    84  79  85 CALM      29.98R HX  95
HOPKINSVILLE   MOCLDY    86  76  72 S5        29.99R HX  96
BOWLING GREEN  CLEAR     85  77  77 S5        30.00R HX  95
GLASGOW        PTCLDY    79  78  99 CALM      30.01S
$$

KYZ024-025-028>034-038-045-046-053-250400-
NORTH CENTRAL KENTUCKY

CITY           SKY/WX    TMP DP  RH WIND       PRES   REMARKS
LOUISVILLE/SDF CLOUDY    86  76  71 SW7       29.98R HX  96
LOUISVILLE/LOU CLEAR     87  75  67 S3        29.98S HX  96
FORT KNOX      CLOUDY    79  76  93 SW1       29.99R
$$

KYZ035>037-039>044-047>052-055>060-089>105-250400-
NORTHEAST KENTUCKY

CITY           SKY/WX    TMP DP  RH WIND       PRES   REMARKS
LEXINGTON      CLEAR     80  73  79 SW7       30.02S
COVINGTON      PTCLDY    82  76  81 S7        29.98S
FRANKFORT      CLEAR     81  74  79 SW3       30.00R
$$

KYZ054-064>069-076>088-106>120-250400-
SOUTHEAST KENTUCKY

CITY           SKY/WX    TMP DP  RH WIND       PRES   REMARKS
JACKSON        CLEAR     81  76  84 CALM      30.06R
LONDON         PTCLDY    80  73  79 CALM      30.06R
SOMERSET       CLEAR     77  75  94 CALM      30.05S
MIDDLESBORO    CLOUDY    78  74  86 CALM      30.07S
MONTICELLO     PTCLDY   N/A N/A N/A NW9       30.06S
$$





USA.gov is the U.S. government's official web portal to all federal, state and local government web resources and services.